User: anonymous   Login
Location: Rumah Dana
(3.1167°N, 113.0167°E)
Time: 02:55:49
(UTC+00:00)
Language:

Cosmos 1328 - Orbit

View from above orbital plane
View from above orbital plane
View from above satellite
View from above satellite

Ground track
Ground track

The orbit data is extracted from the following two-line orbital elements,

1 12987U 81117A   24287.87592649  .00012034  00000-0  54525-3 0  9992
2 12987  82.4967 145.6382 0014440 178.5567 181.5713 15.20647112335923
Epoch (UTC): 13 October 2024 21:01:20
Eccentricity: 0.0014440
inclination: 82.4967°
perigee height: 494 km
apogee height: 514 km
right ascension of ascending node: 145.6382°
argument of perigee: 178.5567°
revolutions per day: 15.20647112
mean anomaly at epoch: 181.5713°
orbit number at epoch: 33592

The dashed part of the orbit path shows where the satellite is in the earth's shadow,  

DLR